This demonstration page uses our WeatherBlox Daily Observations layout. Learn more.

Left ArrowRight Arrow

Hourly Observations for April 11, 2015

Temp ( °F °C ) Dew Point ( °F °C ) Humidity (%) Winds ( mph kmh ) Pressure ( in mb ) Visibility ( mi km ) Precip ( " mm )
12:51 am 00:51 Clear 56 13.3 15 -9.4 20 20 N N/A 29.85 1011 10 16 N/A
1:51 am 01:51 Clear 53 11.7 16 -8.9 23 23 E 8 13 29.84 1011 10 16 N/A
2:51 am 02:51 Clear 50 10 15 -9.4 25 25 ENE 8 13 29.84 1010 10 16 N/A
3:51 am 03:51 Clear 50 10 18 -7.8 28 28 SE 5 7 29.84 1011 10 16 N/A
4:51 am 04:51 Clear 47 8.3 15 -9.4 28 28 N 5 7 29.85 1011 10 16 N/A
5:51 am 05:51 Clear 48 8.9 16 -8.9 28 28 N N/A 29.86 1011 10 16 N/A
6:51 am 06:51 Sunny 53 11.7 18 -7.8 25 25 N 5 7 29.88 1012 10 16 N/A
7:51 am 07:51 Sunny 62 16.7 20 -6.7 20 20 N N/A 29.88 1012 10 16 N/A
8:51 am 08:51 Sunny 69 20.6 23 -5 17 17 ESE 7 11 29.88 1012 10 16 N/A
9:51 am 09:51 Sunny 72 22.2 24 -4.4 17 17 ESE 9 15 29.88 1012 10 16 N/A
10:51 am 10:51 Sunny 75 23.9 24 -4.4 15 15 VRB 5 7 29.86 1011 10 16 N/A
11:51 am 11:51 Sunny 78 25.6 20 -6.7 11 11 VRB 5 7 29.83 1010 10 16 N/A
12:51 pm 12:51 Sunny 79 26.1 20 -6.7 11 11 undefined N/A 29.80 1009 10 16 N/A
1:51 pm 13:51 Sunny 81 27.2 16 -8.9 9 9 VRB 5 7 29.77 1008 10 16 N/A
2:51 pm 14:51 Sunny 83 28.3 16 -8.9 8 8 NNE 9 15 29.73 1007 10 16 N/A
3:51 pm 15:51 Sunny 82 27.8 15 -9.4 8 8 N N/A 29.70 1006 10 16 N/A
4:51 pm 16:51 Sunny 82 27.8 15 -9.4 8 8 WSW 7 11 29.68 1005 10 16 N/A
5:51 pm 17:51 Sunny 81 27.2 14 -10 8 8 WNW 10 17 29.68 1005 10 16 N/A
6:51 pm 18:51 Clear 78 25.6 20 -6.7 11 11 NW 10 17 29.68 1005 10 16 N/A
7:51 pm 19:51 Clear 74 23.3 20 -6.7 13 13 WNW 10 17 29.69 1006 10 16 N/A
8:51 pm 20:51 Clear 73 22.8 20 -6.7 13 13 NW 12 19 29.70 1006 10 16 N/A
9:51 pm 21:51 Clear 72 22.2 19 -7.2 13 13 WNW 13 20 29.72 1006 10 16 N/A
10:51 pm 22:51 Clear 69 20.6 19 -7.2 15 15 NW 10 17 29.73 1007 10 16 N/A
11:51 pm 23:51 Clear 68 20 19 -7.2 15 15 NNW 12 19 29.74 1007 10 16 N/A

Powered by AerisWeather